Location: Newark
(42.8481°N, 0.4872°E)
Time: 08:52:40
(UTC+00:00)

SR - Pass Details

Date: 07 November 2020
Orbit: 579 x 876 km, 66.7° (Epoch: 29 November)

Event Time Altitude Azimuth Distance (km) Brightness Sun altitude
Rises 00:59:36 0° 249° (WSW) 2,794 - -58.7°
Reaches altitude 10° 01:02:15 10° 266° (W) 1,915 - -58.4°
Maximum altitude 01:05:29 21° 315° (NW) 1,389 - -58.1°
Drops below altitude 10° 01:08:52 10° 5° (N) 2,001 - -57.7°
Sets 01:11:43 0° 22° (NNE) 2,962 - -57.3°
